Latest Coastal Weather Observations for Browse Island

IDW60701

Issued at 12:02 pm WST Saturday 25 April 2015 (issued every 10 minutes, with the page automatically refreshed every 10 minutes)

About coastal observations | Map of coastal stations | Coastal observations for WA | Marine services | Other Formats
Station Details ID: 200784 Name: BROWSE ISLAND Lat: -14.11 Lon: 123.55 Height: 3.7 m
Data from the previous 72 hours. | See also: Recent months for locations in Western Australia
Date/Time
WST
Temp

°C
Wind Pressure Rain
since 9am
mm
Weather Cloud Vis
km
Sea
Height
m
Swell
Dir
 
Speed
knots
Gust
knots
hPa Trend Height
m
Period
s
Dir
25/12:00pm 30.2 E 9 10 1010.1 - - - - - - - - -
25/11:30am 30.0 E 7 - 1010.0 - - - - - - - - -
25/11:00am 29.4 E 8 - 1010.9 - - - - - - - - -
25/10:30am 30.0 ENE 7 - 1011.0 - - - - - - - - -
25/10:00am 30.0 E 7 - 1011.5 - - - - - - - - -
25/09:30am 30.0 E 8 - 1011.0 - - - - - - - - -
25/09:00am 30.2 E 7 7 1011.3 - - - - - - - - -
25/08:30am 29.0 E 6 - 1011.0 - - - - - - - - -
25/08:00am 28.9 E 6 - 1010.7 - - - - - - - - -
25/07:30am 29.0 E 5 - 1010.0 - - - - - - - - -
25/07:00am 28.5 NE 5 - 1010.5 - - - - - - - - -
25/06:30am 28.0 NE 5 - 1010.0 - - - - - - - - -
25/06:00am 28.4 NE 7 - 1010.1 - - - - - - - - -
25/05:30am 28.0 NNE 7 - 1009.0 - - - - - - - - -
25/05:00am 28.1 N 9 - 1009.6 - - - - - - - - -
25/04:30am 28.0 NNE 11 - 1009.0 - - - - - - - - -
25/04:00am 28.1 N 11 - 1009.5 - - - - - - - - -
25/03:30am 29.0 NE 9 - 1009.0 - - - - - - - - -
25/03:00am 28.7 ENE 11 - 1009.2 - - - - - - - - -
25/02:30am 29.0 NE 11 - 1009.0 - - - - - - - - -
25/02:00am 28.9 NE 11 - 1009.5 - - - - - - - - -
25/01:30am 29.0 ENE 11 - 1010.0 - - - - - - - - -
25/01:00am 29.1 ENE 10 - 1010.5 - - - - - - - - -
25/12:30am 29.0 NE 10 - 1010.0 - - - - - - - - -
25/12:00am 29.0 NE 10 10 1011.1 - - - - - - - - -
 
Date/Time
WST
Temp

°C
Wind Pressure Rain
since 9am
mm
Weather Cloud Vis
km
Sea
Height
m
Swell
Dir
 
Speed
knots
Gust
knots
hPa Trend Height
m
Period
s
Dir
24/11:30pm 29.0 NE 9 - 1011.0 - - - - - - - - -
24/11:00pm 28.9 NE 9 - 1010.9 - - - - - - - - -
24/10:30pm 29.0 NE 8 - 1010.0 - - - - - - - - -
24/10:00pm 29.0 NE 9 - 1010.8 - - - - - - - - -
24/09:30pm 29.0 NE 8 - 1011.0 - - - - - - - - -
24/09:00pm 29.0 ENE 9 - 1011.2 - - - - - - - - -
24/08:30pm 29.0 ENE 8 - 1011.0 - - - - - - - - -
24/08:00pm 28.8 ENE 10 - 1011.1 - - - - - - - - -
24/07:30pm 29.0 ENE 8 - 1010.0 - - - - - - - - -
24/07:00pm 28.7 NE 8 - 1010.3 - - - - - - - - -
24/06:30pm 29.0 ENE 8 - 1010.0 - - - - - - - - -
24/06:00pm 28.2 ENE 9 - 1009.6 - - - - - - - - -
24/05:30pm 28.0 NE 10 - 1009.0 - - - - - - - - -
24/05:00pm 28.6 E 7 - 1009.1 - - - - - - - - -
24/04:30pm 28.0 ESE 10 - 1008.0 - - - - - - - - -
24/04:00pm 27.9 E 14 - 1008.4 - - - - - - - - -
24/03:30pm 29.0 NE 9 - 1008.0 - - - - - - - - -
24/03:00pm 29.7 NE 9 - 1008.1 - - - - - - - - -
24/02:30pm 30.0 NE 8 - 1008.0 - - - - - - - - -
24/02:00pm 28.7 NE 3 - 1008.4 - - - - - - - - -
24/01:39pm 27.0 NNW 15 - 1008.0 - - - - - - - - -
24/01:30pm 29.0 NE 6 - 1008.0 - - - - - - - - -
24/01:00pm 29.5 NE 8 - 1009.0 - - - - - - - - -
24/12:30pm 29.0 NE 8 - 1009.0 - - - - - - - - -
24/12:00pm 29.2 NNE 9 - 1009.6 - - - - - - - - -
24/11:30am 29.0 NNE 9 - 1009.0 - - - - - - - - -
24/11:00am 29.6 NNE 9 - 1009.8 - - - - - - - - -
24/10:30am 29.0 NNE 11 - 1010.0 - - - - - - - - -
24/10:00am 29.2 NE 11 - 1010.3 - - - - - - - - -
24/09:30am 29.0 NNE 12 - 1010.0 - - - - - - - - -
24/09:00am 29.3 NNE 10 - 1010.6 - - - - - - - - -
24/08:30am 29.0 NE 9 - 1010.0 - - - - - - - - -
24/08:00am 28.9 NE 9 - 1010.4 - - - - - - - - -
24/07:30am 29.0 NE 10 - 1010.0 - - - - - - - - -
24/07:00am 28.6 NE 10 - 1010.0 - - - - - - - - -
24/06:30am 29.0 NE 12 - 1009.0 - - - - - - - - -
24/06:00am 28.4 NE 12 - 1009.4 - - - - - - - - -
24/05:30am 28.0 NE 12 - 1009.0 - - - - - - - - -
24/05:00am 28.3 NE 12 - 1009.1 - - - - - - - - -
24/04:30am 28.0 NNE 11 - 1008.0 - - - - - - - - -
24/04:00am 28.3 NNE 10 - 1008.9 - - - - - - - - -
24/03:30am 28.0 NNE 12 - 1009.0 - - - - - - - - -
24/03:00am 28.1 NNE 12 - 1009.3 - - - - - - - - -
24/02:30am 28.0 NE 13 - 1009.0 - - - - - - - - -
24/02:00am 27.6 NE 10 - 1009.2 - - - - - - - - -
24/01:30am 28.0 NE 12 - 1009.0 - - - - - - - - -
24/01:00am 27.3 NE 11 - 1009.9 - - - - - - - - -
24/12:30am 27.0 ENE 10 - 1010.0 - - - - - - - - -
24/12:00am 27.5 NE 8 - 1010.3 - - - - - - - - -
 
Date/Time
WST
Temp

°C
Wind Pressure Rain
since 9am
mm
Weather Cloud Vis
km
Sea
Height
m
Swell
Dir
 
Speed
knots
Gust
knots
hPa Trend Height
m
Period
s
Dir
23/11:30pm 27.0 ENE 11 - 1010.0 - - - - - - - - -
23/11:00pm 27.5 NE 13 - 1010.7 - - - - - - - - -
23/10:30pm 27.0 ENE 10 - 1010.0 - - - - - - - - -
23/10:00pm 26.6 NE 11 - 1010.7 - - - - - - - - -
23/09:30pm 26.0 E 10 - 1011.0 - - - - - - - - -
23/09:00pm 26.2 NE 7 - 1011.3 - - - - - - - - -
23/08:30pm 26.0 NE 6 - 1011.0 - - - - - - - - -
23/08:00pm 26.2 N 6 - 1011.2 - - - - - - - - -
23/07:30pm 26.0 NNW 4 - 1011.0 - - - - - - - - -
23/07:00pm 25.7 N 5 - 1010.6 - - - - - - - - -
23/06:30pm 26.0 N 11 - 1010.0 - - - - - - - - -
23/06:00pm 26.1 N 15 - 1010.2 - - - - - - - - -
23/05:30pm 26.0 N 16 - 1009.0 - - - - - - - - -
23/05:00pm 25.8 N 18 - 1009.4 - - - - - - - - -
23/04:30pm 26.0 N 19 - 1009.0 - - - - - - - - -
23/04:00pm 26.1 N 12 - 1008.9 - - - - - - - - -
23/03:30pm 27.0 NNE 10 - 1008.0 - - - - - - - - -
23/03:00pm 26.0 ENE 8 - 1008.1 - - - - - - - - -
23/02:30pm 26.0 ESE 10 - 1007.0 - - - - - - - - -
23/02:00pm 25.7 E 12 - 1008.2 - - - - - - - - -
23/01:30pm 27.0 E 8 - 1008.0 - - - - - - - - -
23/01:00pm 26.9 ENE 13 - 1008.4 - - - - - - - - -
23/12:30pm 27.0 NE 19 - 1008.0 - - - - - - - - -
23/12:00pm 28.9 ENE 13 - 1008.7 - - - - - - - - -
23/11:30am 29.0 ENE 13 - 1008.0 - - - - - - - - -
23/11:00am 29.0 NE 13 - 1009.4 - - - - - - - - -
23/10:30am 29.0 NE 12 - 1009.0 - - - - - - - - -
23/10:00am 29.5 NE 13 - 1010.1 - - - - - - - - -
23/09:30am 29.0 NE 13 - 1010.0 - - - - - - - - -
23/09:00am 28.9 NE 15 - 1010.1 - - - - - - - - -
23/08:30am 29.0 NNE 15 - 1010.0 - - - - - - - - -
23/08:00am 28.9 NNE 14 - 1010.4 - - - - - - - - -
23/07:30am 29.0 NNE 14 - 1010.0 - - - - - - - - -
23/07:00am 28.7 NNE 13 - 1010.1 - - - - - - - - -
23/06:30am 29.0 NNE 13 - 1009.0 - - - - - - - - -
23/06:00am 28.6 NNE 13 - 1009.4 - - - - - - - - -
23/05:30am 29.0 NNE 15 - 1009.0 - - - - - - - - -
23/05:00am 28.7 NNE 15 - 1008.5 - - - - - - - - -
23/04:30am 29.0 NNE 19 - 1008.0 - - - - - - - - -
23/04:00am 28.4 NNE 19 - 1007.7 - - - - - - - - -
23/03:30am 28.0 NE 18 - 1007.0 - - - - - - - - -
23/03:00am 28.1 NE 18 - 1007.7 - - - - - - - - -
23/02:30am 28.0 NNE 20 - 1008.0 - - - - - - - - -
23/02:00am 28.1 NNE 17 - 1009.1 - - - - - - - - -
23/01:30am 29.0 NE 14 - 1009.0 - - - - - - - - -
23/01:00am 28.5 NE 14 - 1009.9 - - - - - - - - -
23/12:30am 28.0 NNE 15 - 1010.0 - - - - - - - - -
23/12:00am 28.5 NNE 15 - 1010.9 - - - - - - - - -
 
Date/Time
WST
Temp

°C
Wind Pressure Rain
since 9am
mm
Weather Cloud Vis
km
Sea
Height
m
Swell
Dir
 
Speed
knots
Gust
knots
hPa Trend Height
m
Period
s
Dir
22/11:30pm 29.0 NE 17 - 1010.0 - - - - - - - - -
22/11:00pm 29.1 NE 16 - 1011.1 - - - - - - - - -
22/10:30pm 29.0 NE 18 - 1011.0 - - - - - - - - -
22/10:00pm 29.1 NE 17 - 1010.9 - - - - - - - - -
22/09:30pm 29.0 NE 17 - 1011.0 - - - - - - - - -
22/09:00pm 29.0 NE 17 - 1011.1 - - - - - - - - -
22/08:30pm 29.0 NE 18 - 1011.0 - - - - - - - - -
22/08:00pm 28.8 NE 19 - 1010.6 - - - - - - - - -
22/07:30pm 29.0 NE 17 - 1010.0 - - - - - - - - -
22/07:00pm 28.8 NE 20 - 1010.0 - - - - - - - - -
22/06:30pm 29.0 NE 20 - 1009.0 - - - - - - - - -
22/06:00pm 28.6 ENE 19 - 1009.2 - - - - - - - - -
22/05:30pm 29.0 NE 20 - 1009.0 - - - - - - - - -
22/05:00pm 28.5 NE 19 - 1009.2 - - - - - - - - -
22/04:30pm 29.0 ENE 18 - 1009.0 - - - - - - - - -
22/04:00pm 28.5 ENE 17 - 1009.0 - - - - - - - - -
22/03:30pm 29.0 ENE 17 - 1009.0 - - - - - - - - -
22/03:00pm 28.4 ENE 17 - 1008.7 - - - - - - - - -
22/02:30pm 28.0 ENE 16 - 1008.0 - - - - - - - - -
22/02:00pm 27.7 ENE 18 - 1008.7 - - - - - - - - -
22/01:30pm 28.0 ENE 20 - 1009.0 - - - - - - - - -
22/01:00pm 27.5 ENE 21 - 1009.9 - - - - - - - - -
22/12:30pm 27.0 ENE 20 - 1010.0 - - - - - - - - -

Other Formats:

Comma delimited format used in spreadsheet applications
http://www.bom.gov.au/fwo/IDW60701/IDW60701.94103.axf

JavaScript Object Notation format (JSON) in row-major order
http://www.bom.gov.au/fwo/IDW60701/IDW60701.94103.json